Flag for U.S.A. Weather past 2 weeks in Toledo, Ohio, U.S.A.

Now
65 °F

Clear.


Feels Like: 65 °F
Forecast: 62 / 84 °F
Wind: No wind

Location: Toledo Suburban Airport

Current Time: Jul 5, 2015 at 11:45:22 PM

Latest Report: Jul 5, 2015 at 10:55 PM


Visibility: 10 mi

Pressure: 30.09 "Hg

Humidity: 85%

Dew point: 61 °F

Location of ToledoLocation

Historic Weather in Toledo — Graph

°F

Toledo temperature yesterday

Maximum temperature yesterday: 80 °F (at 5:15 PM)
Minimum temperature yesterday: 54 °F (at 4:55 AM)
Average temperature yesterday: 68 °F

Past Weeks' High & Low Weather Summary

 TemperatureHumidityPressure
High85 °F (Jun 22, 7:55 PM)93% (Jun 27, 7:55 AM)30.18 "Hg (Jun 27, 7:55 AM)
Low54 °F (Jul 4, 4:55 AM)29% (Jun 24, 3:55 PM)29.68 "Hg (Jun 27, 1:54 PM)
Average69 °F73%29.94 "Hg
* Reported Jun 20 10:15 PM — Jul 5 10:35 PM, Toledo, Weather by CustomWeather, © 2015

Note: Actual official high and low records may vary slightly from our data, if they occured in-between our weather recording intervals... More about our weather records

Advertising

Toledo weather history for previous 24 hours

 ConditionsComfort  
Time TempWeatherWind HumidityBarometerVisibility
10:35 PM
Sun, Jul 5
66 °FClear.No wind83%30.09 "Hg10 mi
10:14 PM67 °FClear.No wind80%30.09 "Hg7 mi
9:55 PM67 °FSunny.3 mph79%30.09 "Hg10 mi
9:35 PM69 °FSunny.3 mph72%30.09 "Hg7 mi
9:14 PM72 °FSunny.No wind65%30.09 "Hg10 mi
8:55 PM72 °FSunny.3 mph62%30.09 "Hg10 mi
8:35 PM73 °FSunny.3 mph61%30.09 "Hg10 mi
8:14 PM74 °FSunny.3 mph59%30.10 "Hg10 mi
7:55 PM75 °FSunny.5 mph56%30.10 "Hg10 mi
7:35 PM76 °FSunny.3 mph55%30.10 "Hg10 mi
7:14 PM76 °FSunny.6 mph54%30.10 "Hg10 mi
6:55 PM77 °FSunny.5 mph53%30.10 "Hg10 mi
6:35 PM77 °FSunny.6 mph51%30.10 "Hg10 mi
5:55 PM78 °FSunny.5 mph48%30.10 "Hg10 mi
5:35 PM79 °FSunny.5 mph44%30.10 "Hg10 mi
5:14 PM78 °FSunny.5 mph44%30.10 "Hg10 mi
4:55 PM79 °FSunny.7 mph46%30.10 "Hg10 mi
4:35 PM78 °FSunny.6 mph47%30.11 "Hg10 mi
4:14 PM79 °FSunny.6 mph46%30.11 "Hg10 mi
3:55 PM80 °FSunny.5 mph44%30.11 "Hg10 mi
3:35 PM80 °FSunny.5 mph41%30.11 "Hg10 mi
3:14 PM81 °FSunny.6 mph42%30.11 "Hg10 mi
2:55 PM81 °FSunny.7 mph42%30.12 "Hg10 mi
2:35 PM81 °FSunny.5 mph42%30.12 "Hg10 mi
2:15 PM81 °FSunny.5 mph42%30.12 "Hg10 mi
1:55 PM81 °FSunny.5 mph43%30.13 "Hg10 mi
1:35 PM81 °FSunny.6 mph44%30.13 "Hg10 mi
1:15 PM80 °FSunny.6 mph44%30.13 "Hg10 mi
12:55 PM81 °FSunny.5 mph44%30.13 "Hg10 mi
12:35 PM80 °FSunny.No wind47%30.13 "Hg10 mi
12:15 PM79 °FSunny.No wind48%30.13 "Hg10 mi
11:55 AM78 °FSunny.3 mph47%30.13 "Hg10 mi
11:35 AM78 °FSunny.No wind48%30.14 "Hg10 mi
11:15 AM77 °FSunny.No wind53%30.13 "Hg10 mi
10:55 AM76 °FSunny.No wind52%30.14 "Hg10 mi
10:35 AM76 °FSunny.No wind55%30.14 "Hg10 mi
10:15 AM75 °FSunny.No wind58%30.14 "Hg10 mi
9:55 AM74 °FSunny.No wind62%30.14 "Hg10 mi
9:35 AM72 °FSunny.No wind68%30.13 "Hg10 mi
8:55 AM68 °FSunny.No wind74%30.12 "Hg10 mi
8:35 AM66 °FSunny.No wind81%30.12 "Hg5 mi
8:15 AM63 °FFog.No wind87%30.13 "Hg4 mi
7:55 AM61 °FFog.No wind90%30.13 "Hg2 mi
7:35 AM60 °FFog.No wind90%30.13 "Hg2 mi
7:15 AM58 °FFog.No wind90%30.13 "Hg2 mi
6:55 AM58 °FFog.No wind91%30.13 "Hg2 mi
6:35 AM58 °FFog.No wind91%30.12 "Hg2 mi
6:15 AM57 °FFog.No wind90%30.11 "Hg2 mi
5:55 AM57 °FFog.No wind90%30.11 "Hg3 mi
5:35 AM57 °FFog.No wind90%30.10 "Hg3 mi
5:15 AM58 °FFog.No wind89%30.10 "Hg3 mi
4:55 AM58 °FFog.No wind89%30.09 "Hg3 mi
4:35 AM58 °FFog.No wind89%30.09 "Hg3 mi
4:15 AM59 °FFog.No wind89%30.09 "Hg3 mi
3:55 AM58 °FFog.No wind88%30.08 "Hg3 mi
3:35 AM59 °FFog.No wind88%30.08 "Hg3 mi
3:15 AM60 °FFog.No wind88%30.08 "Hg4 mi
2:55 AM60 °FFog.No wind87%30.08 "Hg4 mi
2:35 AM61 °FFog.No wind86%30.08 "Hg4 mi
2:15 AM61 °FFog.No wind87%30.08 "Hg2 mi
1:55 AM61 °FFog.No wind86%30.08 "Hg3 mi
1:35 AM62 °FFog.No wind87%30.08 "Hg3 mi
1:15 AM62 °FFog.No wind87%30.08 "Hg3 mi
12:55 AM63 °FHaze.No wind85%30.07 "Hg3 mi
12:35 AM63 °FClear.No wind84%30.07 "Hg4 mi
11:55 PM
Sat, Jul 4
64 °FClear.No wind80%30.07 "Hg5 mi
11:35 PM64 °FClear.No wind83%30.06 "Hg3 mi
Weather by CustomWeather, © 2015

See weather overviewHow to use our weather pages